Regional Weather Roundup
Issued by NWS

Home | Current Version | Previous Version | Graphics & Text | Print | Product List | Glossary On
Versions: 1 2 3 4 5 6 7 8 9 10 11 12 13 14 15 16 17 18 19 20 21 22 23 24 25 26 27 28 29 30 31 32 33 34 35 36 37 38 39 40 41 42 43 44 45 46 47 48 49 50
000
ASUS43 KFSD 201902
RWRSD

WEATHER ROUNDUP FOR SOUTH DAKOTA
NATIONAL WEATHER SERVICE SIOUX FALLS SD
200 PM CDT FRI APR 20 2018

NOTE: "FAIR" INDICATES FEW OR NO CLOUDS BELOW 12,000 FEET WITH NO
SIGNIFICANT WEATHER AND/OR OBSTRUCTIONS TO VISIBILITY.


SDZ001>005-009-010-012>017-202000-
NORTHWEST AND NORTH CENTRAL SOUTH DAKOTA

CITY           SKY/WX    TMP DP  RH WIND       PRES   REMARKS
BUFFALO          N/A     53  30  41 SE18G30   30.06F
FAITH            N/A     49  33  54 SE20      30.18F
MOBRIDGE       PTSUNNY   55  34  45 S18G28    30.25F
$$

SDZ012>016-024>037-041>051-057-063-072>074-202000-
SOUTHWEST AND SOUTH CENTRAL SOUTH DAKOTA

CITY           SKY/WX    TMP DP  RH WIND       PRES   REMARKS
RAPID CTY ARPT PTSUNNY   53  30  41 S24G31    30.14S
PIERRE         CLOUDY    52  34  50 SE17G26   30.25F
CUSTER         CLOUDY    42  27  55 SE12G18   30.11S
ELLSWORTH AFB  CLOUDY    55  31  41 S22G31    30.12F
PHILIP         CLOUDY    54  31  41 S14       30.21R
PINE RIDGE     LGT RAIN  42  38  85 E9        30.15F
SPEARFISH      FAIR      54  30  40 NE6       30.08F
WINNER         FAIR      49  33  54 SE13      30.25F
$$

SDZ004>011-016>023-039-040-202000-
NORTHEAST SOUTH DAKOTA

CITY           SKY/WX    TMP DP  RH WIND       PRES   REMARKS
ABERDEEN       PTSUNNY   54  36  50 S12       30.35F
WATERTOWN      CLOUDY    49  39  68 S10       30.36F
BROOKINGS      MOSUNNY   45  34  65 SE9       30.38F
SISSETON         N/A     52  37  56 SE9       30.37F
$$

SDZ017-020-022-023-036>040-048>070-202000-
SOUTHEAST SOUTH DAKOTA

CITY           SKY/WX    TMP DP  RH WIND       PRES   REMARKS
SIOUX FALLS    PTSUNNY   47  33  58 SE9       30.38F
HURON          CLOUDY    46  33  60 SE13      30.35F
CHAMBERLAIN    CLOUDY    48  37  66 SE15      30.29F
MITCHELL       CLOUDY    44  37  76 E12       30.35F
YANKTON        CLOUDY    54  34  46 SE17G24   30.34F
$$

ABBREVIATIONS USED IN REMARKS
   TC - TEMPERATURE IN CELSIUS
  WCI - WIND CHILL INDEX
   HX - HEAT INDEX
  VSB - VISIBILITY





USA.gov is the U.S. government's official web portal to all federal, state and local government web resources and services.